Location: Unspecified
(0.0000°N, 0.0000°E)
Time: 14:27:16
(UTC+00:00)

deb Delta 126 - Pass Details

Date: 18 February 2026
Orbit: 1502 x 2092 km, 101.9° (Epoch: 4 March)

Event Time Altitude Azimuth Distance (km) Brightness Sun altitude
Rises 04:52:57 0° 352° (N) 4,697 ? -19.8°
Reaches altitude 10° 04:56:10 10° 341° (NNW) 3,765 ? -19.0°
Maximum altitude 05:03:26 29° 285° (WNW) 2,693 ? -17.3°
Drops below altitude 10° 05:11:21 10° 230° (SW) 4,101 ? -15.3°
Sets 05:15:06 0° 219° (SW) 5,185 ? -14.4°
